Location: Cornospital
(48.0620°N, 3.3837°W)
Time: 19:40:28
(UTC+00:00)

Cosmos 1741 Rocket - Pass Details

Date: 17 June 2021
Orbit: 761 x 783 km, 74.0° (Epoch: 02 August)

Event Time Altitude Azimuth Distance (km) Brightness Sun altitude
Rises 20:59:15 0° 338° (NNW) 3,246 8.7 -6.2°
Reaches altitude 10° 21:01:39 10° 341° (NNW) 2,319 7.7 -6.5°
Maximum altitude 21:06:54 71° 65° (ENE) 820 4.1 -7.1°
Drops below altitude 10° 21:12:09 10° 150° (SSE) 2,317 5.8 -7.7°
Enters shadow 21:12:25 - 150° (SSE) 2,414 5.9 -7.7°
